When you browse on this site, cookies collect data to enhance your experience and personalize the content and advertising you see.
Visit our Privacy Policy to learn more. By continuing to use the site, you agree to this use of cookies and data.
  • In United Kingdom
  • List of Countries
  • For 7 days
  • Water Temperature
  • Weather Map
  • Weather Widgets
  • user-avatar
    Login

    Hourly Weather Ujfeherto

    Today, 22 September, Sunday

    Time Temperature Precipitation Wind Pressure Humidity
    00:00 +11°C° 0 mm 1 mps 757 mmHg 52%
    01:00 +10°C° 0 mm 1 mps 757 mmHg 54%
    02:00 +10°C° 0 mm 1 mps 757 mmHg 55%
    03:00 +10°C° 0 mm 1 mps 756 mmHg 56%
    04:00 +9°C° 0 mm 1 mps 756 mmHg 57%
    05:00 +10°C° 0 mm 1 mps 756 mmHg 55%
    06:00 +11°C° 0 mm 1 mps 756 mmHg 53%
    07:00 +12°C° 0 mm 1 mps 756 mmHg 52%
    08:00 +14°C° 0 mm 1 mps 756 mmHg 46%
    09:00 +18°C° 0 mm 1 mps 756 mmHg 41%
    10:00 +20°C° 0 mm 1 mps 756 mmHg 35%
    11:00 +21°C° 0 mm 1 mps 755 mmHg 33%
    12:00 +22°C° 0 mm 1 mps 754 mmHg 30%
    13:00 +23°C° 0 mm 1 mps 753 mmHg 28%
    14:00 +23°C° 0 mm 1 mps 753 mmHg 28%
    15:00 +23°C° 0 mm 1 mps 752 mmHg 29%
    16:00 +21°C° 0 mm 0 mps 752 mmHg 29%
    17:00 +21°C° 0 mm 1 mps 752 mmHg 33%
    18:00 +19°C° 0 mm 1 mps 752 mmHg 37%
    19:00 +15°C° 0 mm 1 mps 752 mmHg 41%
    20:00 +15°C° 0 mm 1 mps 752 mmHg 43%
    21:00 +14°C° 0 mm 2 mps 752 mmHg 45%
    22:00 +14°C° 0 mm 2 mps 752 mmHg 46%
    23:00 +14°C° 0 mm 2 mps 752 mmHg 48%

    Tomorrow, 23 September, Monday

    Time Temperature Precipitation Wind Pressure Humidity
    00:00 +14°C° 0 mm 2 mps 752 mmHg 49%
    01:00 +13°C° 0 mm 2 mps 752 mmHg 50%
    02:00 +13°C° 0 mm 2 mps 751 mmHg 51%
    03:00 +13°C° 0 mm 2 mps 751 mmHg 53%
    04:00 +13°C° 0 mm 2 mps 751 mmHg 54%
    05:00 +14°C° 0 mm 1 mps 751 mmHg 53%
    06:00 +14°C° 0 mm 1 mps 751 mmHg 52%
    07:00 +15°C° 0 mm 1 mps 751 mmHg 51%
    08:00 +16°C° 0 mm 1 mps 751 mmHg 49%
    09:00 +18°C° 0 mm 1 mps 751 mmHg 47%
    10:00 +18°C° 0 mm 2 mps 751 mmHg 44%
    11:00 +18°C° 0 mm 2 mps 751 mmHg 47%
    12:00 +19°C° 0 mm 2 mps 750 mmHg 49%
    13:00 +19°C° 0 mm 2 mps 750 mmHg 51%
    14:00 +18°C° 0 mm 2 mps 750 mmHg 56%
    15:00 +18°C° 0 mm 2 mps 750 mmHg 61%
    16:00 +17°C° 0 mm 2 mps 750 mmHg 66%
    17:00 +16°C° 0 mm 2 mps 750 mmHg 71%
    18:00 +15°C° 0 mm 2 mps 750 mmHg 77%
    19:00 +14°C° 0 mm 2 mps 750 mmHg 83%
    20:00 +13°C° 0 mm 1 mps 750 mmHg 84%
    21:00 +13°C° 0 mm 1 mps 750 mmHg 86%
    22:00 +13°C° 0 mm 1 mps 750 mmHg 87%
    23:00 +13°C° 0 mm 1 mps 750 mmHg 86%

    Day after tomorrow, 24 September, Tuesday

    Time Temperature Precipitation Wind Pressure Humidity
    00:00 +12°C° 0 mm 1 mps 750 mmHg 85%
    01:00 +12°C° 0 mm 1 mps 750 mmHg 84%
    02:00 +12°C° 0 mm 1 mps 749 mmHg 81%
    03:00 +12°C° 0 mm 2 mps 749 mmHg 78%
    04:00 +12°C° 0 mm 2 mps 749 mmHg 74%
    05:00 +13°C° 0 mm 2 mps 749 mmHg 72%
    06:00 +13°C° 0 mm 2 mps 748 mmHg 70%
    07:00 +13°C° 0 mm 3 mps 748 mmHg 67%
    08:00 +16°C° 0 mm 3 mps 748 mmHg 59%
    09:00 +18°C° 0 mm 3 mps 748 mmHg 52%
    10:00 +21°C° 0 mm 3 mps 748 mmHg 44%
    11:00 +22°C° 0 mm 3 mps 748 mmHg 40%
    12:00 +25°C° 0 mm 3 mps 748 mmHg 37%
    13:00 +26°C° 0 mm 3 mps 747 mmHg 33%
    14:00 +26°C° 0 mm 3 mps 747 mmHg 35%
    15:00 +26°C° 0 mm 3 mps 747 mmHg 36%
    16:00 +25°C° 0 mm 3 mps 747 mmHg 38%
    17:00 +22°C° 0 mm 3 mps 747 mmHg 42%
    18:00 +21°C° 0 mm 2 mps 747 mmHg 47%
    19:00 +19°C° 0 mm 2 mps 747 mmHg 52%
    20:00 +18°C° 0 mm 3 mps 747 mmHg 57%
    21:00 +17°C° 0 mm 4 mps 747 mmHg 63%
    22:00 +15°C° 0 mm 4 mps 748 mmHg 69%
    23:00 +15°C° 0 mm 4 mps 748 mmHg 72%

    25 September, Wednesday

    Time Temperature Precipitation Wind Pressure Humidity
    00:00 +15°C° 0 mm 4 mps 748 mmHg 75%
    01:00 +15°C° 0 mm 4 mps 747 mmHg 78%
    02:00 +16°C° 0.3 mm 3 mps 747 mmHg 82%
    03:00 +14°C° 0.3 mm 3 mps 747 mmHg 86%
    04:00 +15°C° 0.3 mm 2 mps 747 mmHg 91%
    05:00 +15°C° 1.9 mm 2 mps 747 mmHg 92%
    06:00 +14°C° 1.9 mm 3 mps 747 mmHg 93%
    07:00 +14°C° 1.9 mm 3 mps 747 mmHg 94%
    08:00 +14°C° 1.1 mm 3 mps 747 mmHg 93%
    09:00 +14°C° 1.1 mm 3 mps 747 mmHg 92%
    10:00 +14°C° 1.1 mm 4 mps 747 mmHg 92%
    11:00 +14°C° 0.2 mm 3 mps 747 mmHg 90%
    12:00 +16°C° 0.2 mm 3 mps 747 mmHg 88%
    13:00 +16°C° 0.2 mm 3 mps 747 mmHg 87%
    14:00 +17°C° 0 mm 2 mps 746 mmHg 84%
    15:00 +17°C° 0 mm 2 mps 746 mmHg 82%
    16:00 +18°C° 0 mm 2 mps 746 mmHg 80%
    17:00 +17°C° 0 mm 2 mps 746 mmHg 83%
    18:00 +16°C° 0 mm 2 mps 746 mmHg 86%
    19:00 +15°C° 0 mm 2 mps 747 mmHg 89%
    20:00 +15°C° 0.2 mm 2 mps 747 mmHg 90%
    21:00 +15°C° 0.2 mm 2 mps 747 mmHg 90%
    22:00 +15°C° 0.2 mm 2 mps 747 mmHg 91%
    23:00 +15°C° 0.1 mm 2 mps 747 mmHg 91%

    26 September, Thursday

    Time Temperature Precipitation Wind Pressure Humidity
    00:00 +15°C° 0.1 mm 2 mps 747 mmHg 91%
    01:00 +15°C° 0.1 mm 2 mps 747 mmHg 91%
    02:00 +15°C° 0.1 mm 2 mps 747 mmHg 91%
    03:00 +15°C° 0.1 mm 1 mps 747 mmHg 92%
    04:00 +15°C° 0.1 mm 1 mps 747 mmHg 92%
    05:00 +15°C° 0.2 mm 1 mps 747 mmHg 92%
    06:00 +15°C° 0.2 mm 1 mps 747 mmHg 93%
    07:00 +15°C° 0.2 mm 1 mps 747 mmHg 93%
    08:00 +15°C° 0.7 mm 1 mps 748 mmHg 92%
    09:00 +15°C° 0.7 mm 1 mps 748 mmHg 92%
    10:00 +14°C° 0.7 mm 0 mps 748 mmHg 91%
    11:00 +15°C° 0.6 mm 0 mps 748 mmHg 88%
    12:00 +15°C° 0.6 mm 0 mps 748 mmHg 84%
    13:00 +18°C° 0.6 mm 1 mps 748 mmHg 81%
    14:00 +18°C° 0.2 mm 1 mps 748 mmHg 81%
    15:00 +18°C° 0.2 mm 1 mps 748 mmHg 80%
    16:00 +18°C° 0.2 mm 1 mps 749 mmHg 80%
    17:00 +16°C° 0 mm 1 mps 749 mmHg 83%
    18:00 +15°C° 0 mm 1 mps 749 mmHg 86%
    19:00 +13°C° 0 mm 0 mps 749 mmHg 89%
    20:00 +12°C° 0 mm 0 mps 750 mmHg 89%
    21:00 +12°C° 0 mm 0 mps 750 mmHg 89%
    22:00 +12°C° 0 mm 0 mps 750 mmHg 89%
    23:00 +12°C° 0 mm 0 mps 750 mmHg 89%

    27 September, Friday

    Time Temperature Precipitation Wind Pressure Humidity
    00:00 +12°C° 0 mm 0 mps 751 mmHg 88%
    01:00 +11°C° 0 mm 0 mps 751 mmHg 88%
    02:00 +12°C° 0 mm 1 mps 751 mmHg 89%
    03:00 +12°C° 0 mm 1 mps 751 mmHg 89%
    04:00 +12°C° 0 mm 1 mps 751 mmHg 90%
    05:00 +12°C° 0 mm 1 mps 751 mmHg 89%
    06:00 +13°C° 0 mm 2 mps 751 mmHg 88%
    07:00 +14°C° 0 mm 2 mps 751 mmHg 87%
    08:00 +15°C° 0 mm 2 mps 752 mmHg 81%
    09:00 +17°C° 0 mm 3 mps 752 mmHg 75%
    10:00 +18°C° 0 mm 3 mps 752 mmHg 70%
    11:00 +19°C° 0 mm 3 mps 752 mmHg 64%
    12:00 +21°C° 0 mm 3 mps 752 mmHg 58%
    13:00 +22°C° 0 mm 3 mps 751 mmHg 52%
    14:00 +22°C° 0 mm 3 mps 751 mmHg 54%
    15:00 +23°C° 0 mm 2 mps 751 mmHg 55%
    16:00 +23°C° 0 mm 1 mps 751 mmHg 57%
    17:00 +22°C° 0 mm 1 mps 751 mmHg 60%
    18:00 +20°C° 0 mm 1 mps 751 mmHg 62%
    19:00 +18°C° 0 mm 2 mps 752 mmHg 65%
    20:00 +17°C° 0 mm 2 mps 752 mmHg 66%
    21:00 +17°C° 0 mm 2 mps 752 mmHg 67%
    22:00 +17°C° 0 mm 2 mps 752 mmHg 68%
    23:00 +16°C° 0 mm 2 mps 752 mmHg 68%
    Show more